This is the latest recevied weather packets stored in our database for station/object KC1IUC-15. If no packets are shown the sender has not sent any weather packets the latest 10 day(s).
| Time | Temp. | Humidity | Pressure | Rain* | Wind** | Luminosity | Snow |
|---|---|---|---|---|---|---|---|
| 1777530303 | 8.89° C | 96% | 1008.2 hPa | 2.79 mm | - | 0 W/m² | - |
| 1777530003 | 8.89° C | 96% | 1008.2 hPa | 3.3 mm | - | 0 W/m² | - |
| 1777529703 | 8.89° C | 96% | 1008.2 hPa | 3.3 mm | - | 0 W/m² | - |
| 1777529403 | 8.89° C | 96% | 1008.2 hPa | 3.3 mm | - | 0 W/m² | - |
| 1777529103 | 8.89° C | 96% | 1008.6 hPa | 3.56 mm | - | 0 W/m² | - |
| 1777528803 | 8.89° C | 96% | 1008.2 hPa | 3.56 mm | - | 0 W/m² | - |
| 1777528503 | 8.89° C | 96% | 1008.6 hPa | 3.56 mm | - | 0 W/m² | - |
| 1777528203 | 8.89° C | 95% | 1008.6 hPa | 3.3 mm | - | 0 W/m² | - |
| 1777527903 | 9.44° C | 95% | 1008.9 hPa | 3.3 mm | - | 0 W/m² | - |
| 1777527603 | 9.44° C | 95% | 1008.9 hPa | 2.79 mm | - | 0 W/m² | - |
| 1777527303 | 9.44° C | 95% | 1008.9 hPa | 2.79 mm | - | 0 W/m² | - |
| 1777527003 | 9.44° C | 94% | 1009.3 hPa | 2.79 mm | - | 0 W/m² | - |
| 1777526703 | 9.44° C | 94% | 1009.3 hPa | 2.54 mm | - | 0 W/m² | - |
| 1777526403 | 9.44° C | 94% | 1009.6 hPa | 2.03 mm | - | 0 W/m² | - |
| 1777526103 | 9.44° C | 94% | 1009.3 hPa | 2.03 mm | - | 0 W/m² | - |
| 1777525803 | 9.44° C | 93% | 1009.6 hPa | 1.78 mm | - | 0 W/m² | - |
| 1777525503 | 9.44° C | 93% | 1009.6 hPa | 1.52 mm | - | 0 W/m² | - |
| 1777525203 | 10° C | 93% | 1009.6 hPa | 1.27 mm | - | 0 W/m² | - |
| 1777524903 | 10° C | 92% | 1009.6 hPa | 1.02 mm | - | 0 W/m² | - |
| 1777524603 | 10° C | 92% | 1009.9 hPa | 1.02 mm | - | 0 W/m² | - |
| 1777524303 | 10° C | 92% | 1009.9 hPa | 0.76 mm | - | 0 W/m² | - |
| 1777524003 | 10° C | 91% | 1009.6 hPa | 1.02 mm | - | 0 W/m² | - |
| 1777523703 | 10° C | 91% | 1009.9 hPa | 0.76 mm | - | 0 W/m² | - |
| 1777523403 | 10° C | 90% | 1009.9 hPa | 0.76 mm | - | 0 W/m² | - |
| 1777523103 | 10° C | 89% | 1009.9 hPa | 0.76 mm | - | 0 W/m² | - |
* Rain latest hour (hover to see other rain measurements)
** Current wind speed in m/s (hover to see current wind gust speed)